Location: Borotín
(49.5055°N, 14.6142°E)
Time: 07:47:51
(UTC+00:00)

Cosmos 2251 Rocket - Pass Details

Date: 27 May 2022
Orbit: 764 x 791 km, 74.0° (Epoch: 28 June)

Event Time Altitude Azimuth Distance (km) Brightness Sun altitude
Rises 01:22:42 0° 336° (NNW) 3,249 7.2 -12.3°
Reaches altitude 10° 01:25:05 10° 336° (NNW) 2,321 6.4 -12.1°
Maximum altitude 01:30:22 86° 249° (WSW) 781 3.5 -11.6°
Drops below altitude 10° 01:35:39 10° 160° (SSE) 2,321 5.7 -11.1°
Sets 01:38:01 0° 160° (SSE) 3,249 6.4 -10.9°
